This is the latest recevied weather packets stored in our database for station/object KR4KUV. If no packets are shown the sender has not sent any weather packets the latest 10 day(s).
| Time | Temp. | Humidity | Pressure | Rain* | Wind** | Luminosity | Snow |
|---|---|---|---|---|---|---|---|
| 1787689430 | 31.67° C | 54% | 1018.2 hPa | 0 mm | - | 521 W/m² | - |
| 1787689129 | 30.56° C | 49% | 1018.5 hPa | 0 mm | - | 532 W/m² | - |
| 1787688826 | 31.11° C | 52% | 1018.5 hPa | 0 mm | - | 541 W/m² | - |
| 1787688521 | 30.56° C | 51% | 1018.5 hPa | 0 mm | - | 551 W/m² | - |
| 1787688221 | 30.56° C | 52% | 1018.7 hPa | 0 mm | - | 568 W/m² | - |
| 1787687917 | 31.67° C | 54% | 1018.4 hPa | 0 mm | - | 579 W/m² | - |
| 1787687611 | 31.11° C | 52% | 1018.4 hPa | 0 mm | - | 589 W/m² | - |
| 1787687301 | 31.11° C | 50% | 1018.4 hPa | 0 mm | - | 598 W/m² | - |
| 1787686997 | 31.67° C | 53% | 1018.5 hPa | 0 mm | - | 610 W/m² | - |
| 1787686693 | 31.67° C | 52% | 1018.5 hPa | 0 mm | - | 622 W/m² | - |
| 1787686393 | 31.11° C | 51% | 1018.6 hPa | 0 mm | - | 630 W/m² | - |
| 1787686089 | 30.56° C | 55% | 1018.6 hPa | 0 mm | - | 643 W/m² | - |
| 1787685784 | 30.56° C | 51% | 1018.8 hPa | 0 mm | - | 652 W/m² | - |
| 1787685479 | 30° C | 52% | 1018.9 hPa | 0 mm | - | 660 W/m² | - |
| 1787685173 | 30° C | 52% | 1018.8 hPa | 0 mm | - | 668 W/m² | - |
| 1787684869 | 29.44° C | 51% | 1018.8 hPa | 0 mm | - | 674 W/m² | - |
| 1787684569 | 30.56° C | 49% | 1019.1 hPa | 0 mm | - | 682 W/m² | - |
| 1787684264 | 31.11° C | 51% | 1019.5 hPa | 0 mm | - | 684 W/m² | - |
| 1787683959 | 30° C | 50% | 1019.4 hPa | 0 mm | - | 690 W/m² | - |
| 1787683652 | 30° C | 55% | 1019.5 hPa | 0 mm | - | 697 W/m² | - |
| 1787683347 | 30° C | 50% | 1019.5 hPa | 0 mm | - | 705 W/m² | - |
| 1787683044 | 30° C | 52% | 1019.6 hPa | 0 mm | - | 708 W/m² | - |
| 1787682740 | 29.44° C | 54% | 1019.8 hPa | 0 mm | - | 713 W/m² | - |
| 1787682436 | 29.44° C | 52% | 1020 hPa | 0 mm | - | 720 W/m² | - |
| 1787682131 | 28.89° C | 53% | 1019.9 hPa | 0 mm | - | 722 W/m² | - |
* Rain latest hour (hover to see other rain measurements)
** Current wind speed in m/s (hover to see current wind gust speed)